Tehachapi, CA

11:33 PM PDT on September 24, 2017 (GMT -0700)
Tehachapi Municipal

Weather History for KTSP - January, 2013

Change the Weather History Date:

Friday, January 4, 2013

  Actual Average Record
Temperature  
Mean Temperature 38 °F -  
Max Temperature 51 °F 48 °F 68 °F (2012)
Min Temperature 24 °F 29 °F 23 °F (2015)
Degree Days  
Heating Degree Days 28    
Moisture  
Dew Point 6 °F    
Average Humidity 31    
Maximum Humidity 64    
Minimum Humidity 13    
Precipitation  
Precipitation 0.00 in - - ()
Sea Level Pressure  
Sea Level Pressure 30.24 in    
Wind  
Wind Speed 10 mph (ESE)    
Max Wind Speed 15 mph    
Max Gust Speed 20 mph    
Visibility 10 miles    
Events      
Averages and records for this station are not official NWS values.
T = Trace of Precipitation, MM = Missing Value Source: NWS Daily Summary

Daily Weather History Graph

Daily Weather History Graph

Search for Another Location

Airport or City:

Trip Planner

Search our weather history database for the weather conditions in past years. The results will help you decide how hot, cold, wet, or windy it might be!

Date:

Astronomy

Jan. 04, 2013 Rise Set
Actual Time 7:02 AM PST 4:55 PM PST
Civil Twilight 6:34 AM PST 5:23 PM PST
Nautical Twilight 6:03 AM PST 5:55 PM PST
Astronomical Twilight 5:32 AM PST 6:25 PM PST
Moon No Moon Rise 11:05 AM PST (1/4)
Length of Visible Light 10h 48m
Length of Day
9h 52m
Waning Gibbous, 54% of the Moon is Illuminated
Jan 4
Waning Gibbous
Jan 4
Last Quarter
Jan 11
New
Jan 18
First Quarter
Jan 26
Full

Hourly Weather History & Observations

Time (PST) Temp. Windchill Dew Point Humidity Pressure Visibility Wind Dir Wind Speed Gust Speed Precip Events Conditions
12:15 AM 24.8 °F 16.1 °F 14.0 °F 64% 30.25 in 10.0 mi ESE 8.1 mph - N/A   Clear
12:35 AM 26.6 °F 16.8 °F 12.2 °F 55% 30.25 in 10.0 mi ESE 10.4 mph - N/A   Clear
12:55 AM 24.8 °F 16.1 °F 12.2 °F 59% 30.25 in 10.0 mi ESE 8.1 mph - N/A   Clear
3:35 AM 28.4 °F 19.1 °F 8.6 °F 43% 30.23 in 10.0 mi ESE 10.4 mph - N/A   Clear
3:55 AM 32.0 °F 24.2 °F 6.8 °F 35% 30.23 in 10.0 mi ESE 9.2 mph - N/A   Clear
4:15 AM 30.2 °F 20.8 °F 6.8 °F 37% 30.22 in 10.0 mi East 11.5 mph - N/A   Clear
4:35 AM 32.0 °F 23.6 °F 5.0 °F 32% 30.22 in 10.0 mi ESE 10.4 mph - N/A   Clear
4:55 AM 35.6 °F 27.1 °F 3.2 °F 26% 30.22 in 10.0 mi East 12.7 mph - N/A   Clear
5:35 AM 35.6 °F 28.0 °F 1.4 °F 24% 30.23 in 10.0 mi East 10.4 mph - N/A   Clear
5:55 AM 35.6 °F 27.5 °F 1.4 °F 24% 30.23 in 10.0 mi East 11.5 mph - N/A   Clear
6:15 AM 35.6 °F 27.5 °F 1.4 °F 24% 30.24 in 10.0 mi East 11.5 mph - N/A   Clear
6:35 AM 33.8 °F 25.8 °F 1.4 °F 25% 30.24 in 10.0 mi East 10.4 mph - N/A   Clear
6:55 AM 33.8 °F 25.8 °F 1.4 °F 25% 30.25 in 10.0 mi East 10.4 mph - N/A   Clear
7:15 AM 35.6 °F 27.1 °F 1.4 °F 24% 30.26 in 9.0 mi East 12.7 mph - N/A   Clear
7:35 AM 35.6 °F 28.6 °F 1.4 °F 24% 30.26 in 10.0 mi East 9.2 mph - N/A   Clear
7:55 AM 35.6 °F 28.0 °F 5.0 °F 28% 30.27 in 10.0 mi East 10.4 mph - N/A   Clear
8:15 AM 39.2 °F 33.6 °F 3.2 °F 22% 30.28 in 10.0 mi East 8.1 mph - N/A   Clear
8:35 AM 39.2 °F 33.6 °F 5.0 °F 24% 30.29 in 10.0 mi East 8.1 mph - N/A   Clear
8:55 AM 41.0 °F 35.2 °F 5.0 °F 23% 30.29 in 10.0 mi ESE 9.2 mph - N/A   Clear
9:15 AM 42.8 °F 37.0 °F 5.0 °F 21% 30.29 in 8.0 mi East 10.4 mph - N/A   Clear
9:35 AM 44.6 °F 38.8 °F 5.0 °F 20% 30.30 in 10.0 mi ESE 11.5 mph - N/A   Clear
9:55 AM 46.4 °F 40.7 °F 5.0 °F 18% 30.29 in 5.0 mi ESE 12.7 mph - N/A   Haze
10:15 AM 46.4 °F 40.7 °F 5.0 °F 18% 30.29 in 9.0 mi ESE 12.7 mph - N/A   Clear
10:35 AM 48.2 °F - 3.2 °F 16% 30.28 in 8.0 mi ESE 13.8 mph 19.6 mph N/A   Clear
10:55 AM 48.2 °F - 3.2 °F 16% 30.27 in 8.0 mi SE 15.0 mph 19.6 mph N/A   Clear
11:15 AM 48.2 °F - 3.2 °F 16% 30.26 in 10.0 mi ESE 15.0 mph - N/A   Clear
11:35 AM 48.2 °F - 1.4 °F 15% 30.25 in 10.0 mi ESE 13.8 mph 17.3 mph N/A   Clear
11:55 AM 50.0 °F - 1.4 °F 14% 30.24 in 10.0 mi East 12.7 mph 18.4 mph N/A   Clear
12:15 PM 50.0 °F - 3.2 °F 15% 30.23 in 10.0 mi East 13.8 mph 19.6 mph N/A   Clear
12:35 PM 50.0 °F - 3.2 °F 15% 30.22 in 8.0 mi East 12.7 mph - N/A   Clear
12:55 PM 51.8 °F - 3.2 °F 14% 30.22 in 10.0 mi East 10.4 mph - N/A   Clear
1:15 PM 51.8 °F - 5.0 °F 15% 30.21 in 10.0 mi East 13.8 mph - N/A   Clear
1:35 PM 51.8 °F - 3.2 °F 14% 30.21 in 10.0 mi East 11.5 mph - N/A   Clear
1:55 PM 51.8 °F - 3.2 °F 14% 30.20 in 9.0 mi ESE 8.1 mph - N/A   Clear
2:15 PM 51.8 °F - 1.4 °F 13% 30.20 in 10.0 mi East 9.2 mph - N/A   Clear
2:35 PM 51.8 °F - 1.4 °F 13% 30.20 in 10.0 mi ESE 8.1 mph - N/A   Clear
2:55 PM 51.8 °F - 3.2 °F 14% 30.20 in 10.0 mi ESE 8.1 mph - N/A   Clear
3:15 PM 50.0 °F - 3.2 °F 15% 30.20 in 10.0 mi SE 8.1 mph - N/A   Clear
3:35 PM 50.0 °F - 5.0 °F 16% 30.20 in 10.0 mi SE 9.2 mph - N/A   Clear
3:55 PM 48.2 °F - 6.8 °F 19% 30.21 in 10.0 mi SE 9.2 mph - N/A   Clear
4:15 PM 46.4 °F 41.9 °F 5.0 °F 18% 30.21 in 10.0 mi ESE 9.2 mph - N/A   Clear
4:35 PM 44.6 °F 40.7 °F 5.0 °F 20% 30.21 in 10.0 mi East 6.9 mph - N/A   Clear
4:55 PM 39.2 °F 33.6 °F 6.8 °F 26% 30.21 in 10.0 mi SE 8.1 mph - N/A   Clear
5:15 PM 37.4 °F 32.1 °F 6.8 °F 28% 30.22 in 10.0 mi ESE 6.9 mph - N/A   Clear
5:35 PM 35.6 °F 28.6 °F 8.6 °F 33% 30.22 in 10.0 mi SE 9.2 mph - N/A   Clear
5:55 PM 33.8 °F 26.4 °F 8.6 °F 35% 30.22 in 10.0 mi SE 9.2 mph - N/A   Clear
6:15 PM 32.0 °F 23.6 °F 8.6 °F 38% 30.23 in 10.0 mi SE 10.4 mph - N/A   Clear
6:35 PM 32.0 °F 24.2 °F 8.6 °F 38% 30.23 in 10.0 mi SE 9.2 mph - N/A   Clear
6:55 PM 32.0 °F 24.2 °F 10.4 °F 41% 30.23 in 10.0 mi SE 9.2 mph - N/A   Clear
7:15 PM 32.0 °F 23.6 °F 10.4 °F 41% 30.24 in 10.0 mi SE 10.4 mph - N/A   Clear
7:35 PM 32.0 °F 24.2 °F 10.4 °F 41% 30.24 in 10.0 mi ESE 9.2 mph - N/A   Clear
7:55 PM 32.0 °F 24.2 °F 10.4 °F 41% 30.24 in 10.0 mi ESE 9.2 mph - N/A   Clear
8:15 PM 32.0 °F 23.6 °F 10.4 °F 41% 30.24 in 10.0 mi SE 10.4 mph - N/A   Clear
8:35 PM 32.0 °F 23.6 °F 10.4 °F 41% 30.25 in 10.0 mi SE 10.4 mph - N/A   Clear
8:55 PM 30.2 °F 21.3 °F 12.2 °F 47% 30.25 in 10.0 mi SE 10.4 mph - N/A   Clear
9:15 PM 28.4 °F 19.1 °F 12.2 °F 51% 30.26 in 10.0 mi SE 10.4 mph - N/A   Clear
9:35 PM 28.4 °F 19.1 °F 12.2 °F 51% 30.26 in 10.0 mi SE 10.4 mph - N/A   Clear
9:55 PM 28.4 °F 20.4 °F 12.2 °F 51% 30.26 in 10.0 mi ESE 8.1 mph - N/A   Clear
10:15 PM 26.6 °F - 10.4 °F 51% 30.26 in 10.0 mi Calm Calm - N/A   Clear
10:35 PM 26.6 °F 20.0 °F 12.2 °F 55% 30.26 in 10.0 mi SE 5.8 mph - N/A   Clear
10:55 PM 28.4 °F 23.3 °F 12.2 °F 51% 30.27 in 10.0 mi ESE 4.6 mph - N/A   Clear
11:15 PM 26.6 °F - 12.2 °F 55% 30.27 in 10.0 mi Calm Calm - N/A   Clear
11:35 PM 24.8 °F - 14.0 °F 64% 30.27 in 10.0 mi Calm Calm - N/A   Clear
11:55 PM 24.8 °F 20.5 °F 12.2 °F 59% 30.27 in 10.0 mi ESE 3.5 mph - N/A   Clear